Regional Weather Roundup
Issued by NWS

Home | Current Version | Previous Version | Text Only | Print | Product List | Glossary Off
Versions: 1 2 3 4 5 6 7 8 9 10 11 12 13 14 15 16 17 18 19 20 21 22 23 24 25 26 27 28 29 30 31 32 33 34 35 36 37 38 39 40 41 42 43 44 45 46 47 48 49 50

000
ASUS43 KFSD 191202
RWRSD

WEATHER ROUNDUP FOR SOUTH DAKOTA
NATIONAL WEATHER SERVICE SIOUX FALLS SD
700 AM CDT SAT MAY 19 2018

NOTE: "FAIR" INDICATES FEW OR NO CLOUDS BELOW 12,000 FEET WITH NO
SIGNIFICANT WEATHER AND/OR OBSTRUCTIONS TO VISIBILITY.


SDZ001>005-009-010-012>017-191300-
NORTHWEST AND NORTH CENTRAL SOUTH DAKOTA

CITY           SKY/WX    TMP DP  RH WIND       PRES   REMARKS
BUFFALO          N/A     44  36  73 NE13      30.19R
FAITH            N/A     44  40  85 N18       30.18R
MOBRIDGE       CLOUDY    47  38  71 N18G28    30.14R
$$

SDZ012>016-024>037-041>051-057-063-072>074-191300-
SOUTHWEST AND SOUTH CENTRAL SOUTH DAKOTA

CITY           SKY/WX    TMP DP  RH WIND       PRES   REMARKS
RAPID CTY ARPT LGT RAIN  43  41  93 N17G29    30.17R FOG
PIERRE         CLOUDY    46  45  96 N15       30.10F
CUSTER         CLOUDY    39  35  86 N10G23    30.13R
ELLSWORTH AFB  LGT RAIN  43  43 100 N22       30.17  FOG
PHILIP         CLOUDY    46  43  89 NE12      30.15R
PINE RIDGE     CLOUDY    45  44  97 N9        30.12S
SPEARFISH      LGT RAIN  41  41 100 NE8       30.22R VSB 3/4
WINNER         LGT RAIN  47  44  90 N20       30.06F FOG
$$

SDZ004>011-016>023-039-040-191300-
NORTHEAST SOUTH DAKOTA

CITY           SKY/WX    TMP DP  RH WIND       PRES   REMARKS
ABERDEEN       CLOUDY    46  41  82 N21G32    30.09R
WATERTOWN      CLOUDY    43  43 100 N21G30    30.01R
BROOKINGS      CLOUDY    46  43  89 N12       30.02R
SISSETON         N/A     45  43  93 N23G29    30.05R
$$

SDZ017-020-022-023-036>040-048>070-191300-
SOUTHEAST SOUTH DAKOTA

CITY           SKY/WX    TMP DP  RH WIND       PRES   REMARKS
SIOUX FALLS    CLOUDY    48  45  89 N10       30.00R
HURON          CLOUDY    47  43  86 N10       30.07R
CHAMBERLAIN    CLOUDY    47  47 100 N10       30.09S
MITCHELL       CLOUDY    48  44  86 N17G25    30.05R
YANKTON        CLOUDY    50  46  86 N16       29.99F
$$

ABBREVIATIONS USED IN REMARKS
   TC - TEMPERATURE IN CELSIUS
  WCI - WIND CHILL INDEX
   HX - HEAT INDEX
  VSB - VISIBILITY





USA.gov is the U.S. government's official web portal to all federal, state and local government web resources and services.